Location: Unspecified
(0.0000°N, 0.0000°E)
Time: 01:26:37
(UTC+00:00)

Transit 4A - Pass Details

Date: 21 November 2019
Orbit: 870 x 975 km, 66.8° (Epoch: 11 December)

Event Time Altitude Azimuth Distance (km) Brightness Sun altitude
Rises 18:45:24 0° 176° (S) 3,666 11.2 -14.0°
Reaches altitude 10° 18:48:28 10° 163° (SSE) 2,719 10.4 -14.7°
Maximum altitude 18:53:31 25° 110° (ESE) 1,858 9.1 -15.9°
Enters shadow 18:55:10 22° 87° (E) 1,966 9.0 -16.3°
Drops below altitude 10° 18:58:31 10° 57° (ENE) 2,696 - -17.0°
Sets 19:01:31 0° 44° (NE) 3,628 - -17.7°
